[[{"header":{"parameterUnit":"m.s-1","parameterCategory":1,"la1":30.2991,"la2":30.254,"lo1":-89.0895,"lo2":-89.0444,"dy":0.0017,"dx":0.0017,"nx":28,"ny":28,"refTime":"2023-09-17T09:00:00:Z","depth":0,"parameterNumber":2,"parameterNumberName":"U-component_of_WINDS"},"data":[0,0,0,0,0,0,0,0,0,0,0,0,0,0,0,0,0,0,0,0,0,0,0,0,0,0,0,0,0,0,0,0,0,0,0,0,0,0,0,0,0,0,0,0,0,0,0,0,0,0,0,0,0,0,0,0,0,0,1.7602,1.7602,0,1.7601,1.7601,1.7601,1.7557,1.7556,1.7555,1.7554,1.7554,1.7555,1.7556,0,0,0,0,0,0,0,0,0,0,0,0,0,1.7568,1.7568,1.7602,1.7602,1.7602,1.7601,1.7601,1.7601,1.7557,1.7556,1.7555,1.7553,1.7554,1.7555,1.7556,0,0,0,0,0,0,0,0,0,0,0,0,0,1.7576,1.7569,1.7602,1.758,1.7578,1.7601,1.7601,1.7601,1.7558,1.7556,1.7554,1.7553,1.7553,1.7555,1.7557,1.7601,0,0,1.7562,1.7562,0,0,0,0,0,0,0,0,1.7576,1.7578,1.7583,1.7581,1.7579,1.7577,1.7589,1.7601,1.7558,1.7565,1.7554,1.7552,1.7563,1.7564,1.7568,1.7601,1.7601,1.7562,1.7563,1.7563,1.7564,0,0,0,0,0,0,0,1.7575,1.7577,1.7602,1.7583,1.7581,1.7571,1.757,1.7591,1.7574,1.7565,1.7561,1.7562,1.7562,1.7566,1.7567,1.7601,1.7562,1.7563,1.7564,1.7565,1.7673,1.7675,0,0,0,0,0,0,1.7578,1.7577,1.7602,1.7602,1.7573,1.7573,1.7572,1.758,1.7574,1.7571,1.7563,1.756,1.7564,1.7566,1.7567,1.762,1.7563,1.7565,1.7566,1.7671,1.7674,1.7676,0,0,0,0,0,0,1.7577,1.758,1.7602,1.7589,1.7591,1.7575,1.7584,1.7581,1.7585,1.7573,1.757,1.7571,1.7563,1.7565,1.7593,1.7619,1.7566,1.7567,1.7669,1.7672,1.7675,1.7725,0,0,0,0,0,0,1.7576,1.758,1.7596,1.7589,1.7591,1.7627,1.7586,1.7582,1.7588,1.7583,1.7579,1.7577,1.7562,1.7591,1.7595,1.762,1.7568,1.7667,1.767,1.7674,1.7721,1.7729,1.7736,0,0,0,0,0,1.7575,1.761,1.7597,1.76,1.7611,1.7629,1.763,1.7612,1.759,1.7606,1.7599,1.7577,1.7616,1.7594,1.7598,1.7625,1.7665,1.7669,1.7673,1.7717,1.7728,1.7736,0,0,0,0,0,0,1.762,1.7609,1.7594,1.7628,1.763,1.7621,1.7641,1.7623,1.7631,1.7626,1.7604,1.7604,1.7636,1.7633,1.7609,1.7669,1.7637,1.7642,1.7669,1.7678,1.7686,1.7686,1.757,0,0,0,0,0,1.7634,1.7649,1.7638,1.7669,1.7671,1.7656,1.7663,1.7649,1.765,1.7651,1.7645,1.7648,1.7661,1.7669,1.7681,1.7721,1.772,1.7741,1.7749,1.7755,1.776,1.7782,1.7792,1.769,1.769,1.769,0,0,1.7663,1.7659,1.7669,1.7678,1.7678,1.7695,1.7657,1.7676,1.7688,1.7654,1.768,1.7677,1.7678,1.7713,1.7728,1.7711,1.7788,1.7761,1.7766,1.7767,1.7788,1.7797,1.7806,1.7693,1.7692,1.7692,0,0,1.7724,1.7722,1.7748,1.7749,1.7749,1.7739,1.7746,1.774,1.7737,1.7763,1.7738,1.7753,1.7776,1.7778,1.7782,1.7847,1.7827,1.7851,1.7891,1.7913,1.7921,1.7928,1.7952,1.796,1.7856,1.7856,1.7856,0,1.776,1.7783,1.7764,1.7784,1.779,1.776,1.7787,1.7789,1.7793,1.7798,1.778,1.7809,1.7807,1.7843,1.7859,1.7863,1.787,1.7851,1.7921,1.7928,1.7935,1.7957,1.7966,1.7859,1.7859,1.7858,1.7858,0,1.7827,1.7844,1.7865,1.787,1.7878,1.7902,1.7887,1.7898,1.7884,1.7877,1.7905,1.7903,1.7914,1.7922,1.7908,1.7956,1.7946,1.7925,1.7892,1.7948,1.7968,1.7976,1.7863,1.7862,1.7861,1.7861,0,0,1.7915,1.791,1.7918,1.7921,1.792,1.7933,1.7956,1.7967,1.7977,1.7981,1.8001,1.8022,1.8003,1.8008,1.7995,1.8015,1.8067,1.7991,1.7991,1.8006,1.8121,1.8136,1.8146,1.8055,1.8056,1.8057,1.8121,0,1.7974,1.8012,1.7997,1.8037,1.8053,1.8027,1.8047,1.805,1.8044,1.8058,1.8052,1.8067,1.8041,1.8044,1.8062,1.8057,1.809,1.8052,1.8073,1.8074,1.8073,1.8157,1.8172,1.8232,1.8128,1.813,1.8131,0,1.8047,1.8055,1.8097,1.8095,1.8101,1.812,1.8129,1.8142,1.8145,1.814,1.8147,1.813,1.8154,1.8123,1.8156,1.8131,1.8139,1.8138,1.814,1.8141,1.8105,1.816,1.8251,1.826,1.8143,1.8142,1.8141,0,1.8107,1.8128,1.8156,1.8159,1.8158,1.8172,1.8172,1.8173,1.8181,1.819,1.8195,1.8207,1.8213,1.8223,1.8211,1.8189,1.8247,1.8214,1.8243,1.8244,1.8256,1.8255,1.8349,1.8262,1.8262,1.8262,1.8261,0,1.8174,1.8201,1.8183,1.82,1.8231,1.8214,1.8244,1.8241,1.8243,1.826,1.8239,1.8255,1.8238,1.8254,1.8245,1.8274,1.8278,1.8275,1.8272,1.8276,1.8277,1.828,1.8276,1.8264,1.8263,1.8263,1.8263,0,1.8245,1.8234,1.8263,1.826,1.826,1.8282,1.828,1.8296,1.829,1.8312,1.8317,1.8307,1.8325,1.8314,1.8331,1.8325,1.8364,1.8356,1.8363,1.8361,1.8391,1.8388,1.849,1.8503,1.8408,1.8409,1.841,0,1.8288,1.8308,1.8307,1.8317,1.8319,1.8335,1.8343,1.8328,1.8338,1.8344,1.8361,1.8376,1.8388,1.8417,1.8413,1.8427,1.8418,1.8453,1.842,1.8424,1.8419,1.8418,1.842,1.846,1.8461,1.8462,1.8462,0,1.8365,1.836,1.8372,1.8384,1.8395,1.8403,1.841,1.842,1.8405,1.8417,1.8435,1.8444,1.8463,1.8479,1.8492,1.8493,1.8476,1.8473,1.8481,1.8485,1.8489,1.8487,1.8381,1.8471,1.847,1.8469,1.8469,1.8468,1.8424,1.8441,1.8443,1.8459,1.8463,1.847,1.8486,1.8482,1.8497,1.851,1.8501,1.8523,1.8527,1.8542,1.8546,1.8563,1.8548,1.8559,1.8562,1.8565,1.8569,1.8487,1.8565,1.8565,1.8564,1.8564,1.8564,0,1.85,1.8501,1.8516,1.8526,1.8539,1.8522,1.8529,1.8541,1.856,1.8566,1.8578,1.86,1.8616,1.8613,1.8628,1.8643,1.8635,1.8647,1.8646,1.8646,1.8581,1.8573,1.8653,1.8653,1.8653,1.8653,1.8653,1.8653,1.8541,1.857,1.8565,1.8596,1.8597,1.8617,1.8623,1.863,1.8635,1.866,1.8673,1.8671,1.8674,1.869,1.8705,1.8704,1.871,1.8725,1.8721,1.866,1.8651,1.8642,1.8635,1.8727,1.8727,1.8785,1.8786,1.8786]},{"header":{"parameterUnit":"m.s-1","parameterCategory":1,"la1":30.2991,"la2":30.254,"lo1":-89.0895,"lo2":-89.0444,"dy":0.0017,"dx":0.0017,"nx":28,"ny":28,"refTime":"2023-09-17T09:00:00:Z","depth":0,"parameterNumber":3,"parameterNumberName":"V-component_of_WINDS"},"data":[0,0,0,0,0,0,0,0,0,0,0,0,0,0,0,0,0,0,0,0,0,0,0,0,0,0,0,0,0,0,0,0,0,0,0,0,0,0,0,0,0,0,0,0,0,0,0,0,0,0,0,0,0,0,0,0,0,0,-3.671,-3.6711,0,-3.6831,-3.6832,-3.6834,-3.6784,-3.6782,-3.6779,-3.6776,-3.6895,-3.69,-3.6906,0,0,0,0,0,0,0,0,0,0,0,0,0,-3.643,-3.6435,-3.6709,-3.6711,-3.6713,-3.6831,-3.6832,-3.6834,-3.6785,-3.6781,-3.6778,-3.6775,-3.6893,-3.69,-3.6907,0,0,0,0,0,0,0,0,0,0,0,0,0,-3.6551,-3.6437,-3.6709,-3.6702,-3.6703,-3.683,-3.6832,-3.6834,-3.6786,-3.6781,-3.6777,-3.6773,-3.689,-3.6899,-3.6907,-3.7047,0,0,-3.6934,-3.6938,0,0,0,0,0,0,0,0,-3.6544,-3.6561,-3.6702,-3.6703,-3.6704,-3.6788,-3.6777,-3.6906,-3.6787,-3.6754,-3.6776,-3.6771,-3.6862,-3.6873,-3.6905,-3.7052,-3.7058,-3.6935,-3.694,-3.6944,-3.6946,0,0,0,0,0,0,0,-3.6536,-3.6556,-3.6757,-3.6704,-3.6705,-3.6692,-3.6704,-3.6801,-3.683,-3.6757,-3.6753,-3.6769,-3.6862,-3.6897,-3.6907,-3.7059,-3.6935,-3.6942,-3.6948,-3.6951,-3.7327,-3.7332,0,0,0,0,0,0,-3.6528,-3.6549,-3.6753,-3.6761,-3.6612,-3.67,-3.6714,-3.6765,-3.6829,-3.6835,-3.6772,-3.6766,-3.6884,-3.6897,-3.6911,-3.7079,-3.6944,-3.6952,-3.6957,-3.7322,-3.7328,-3.7333,0,0,0,0,0,0,-3.6522,-3.6547,-3.6749,-3.6654,-3.6679,-3.671,-3.6768,-3.677,-3.6805,-3.6841,-3.6846,-3.6803,-3.6881,-3.6899,-3.7014,-3.7083,-3.6956,-3.6964,-3.7317,-3.7324,-3.7331,-3.7416,0,0,0,0,0,0,-3.6515,-3.6545,-3.66,-3.6656,-3.6684,-3.6851,-3.6772,-3.6776,-3.6821,-3.6814,-3.6871,-3.6876,-3.6879,-3.7001,-3.7023,-3.7092,-3.6971,-3.7311,-3.732,-3.7328,-3.7407,-3.7425,-3.7441,0,0,0,0,0,-3.6505,-3.6617,-3.6603,-3.6628,-3.6754,-3.6855,-3.6871,-3.6874,-3.6827,-3.6881,-3.6904,-3.6875,-3.7072,-3.7014,-3.7037,-3.711,-3.7306,-3.7317,-3.7328,-3.74,-3.7422,-3.744,0,0,0,0,0,0,-3.6566,-3.6625,-3.6609,-3.6744,-3.6795,-3.6847,-3.6915,-3.6897,-3.6961,-3.6952,-3.695,-3.6963,-3.7082,-3.7107,-3.7042,-3.7249,-3.7182,-3.7198,-3.7228,-3.7249,-3.7266,-3.7257,-3.6978,0,0,0,0,0,-3.6596,-3.6675,-3.6721,-3.6836,-3.6863,-3.6885,-3.6929,-3.6927,-3.6979,-3.7,-3.7032,-3.7082,-3.7155,-3.7204,-3.7273,-3.741,-3.7422,-3.7472,-3.7489,-3.7503,-3.7516,-3.7591,-3.7614,-3.7368,-3.7368,-3.7368,0,0,-3.6657,-3.6699,-3.6749,-3.6849,-3.6889,-3.697,-3.6903,-3.6991,-3.7051,-3.7013,-3.7124,-3.7149,-3.7205,-3.7332,-3.7389,-3.7357,-3.7587,-3.7516,-3.7527,-3.7533,-3.7604,-3.7628,-3.7648,-3.7376,-3.7374,-3.7373,0,0,-3.681,-3.685,-3.695,-3.6992,-3.7053,-3.7067,-3.7091,-3.7146,-3.7162,-3.7274,-3.7247,-3.7317,-3.7443,-3.7485,-3.7522,-3.7692,-3.7667,-3.7714,-3.7801,-3.7874,-3.7893,-3.791,-3.7971,-3.7993,-3.7727,-3.7728,-3.7728,0,-3.6878,-3.7001,-3.7003,-3.7095,-3.7139,-3.711,-3.7211,-3.725,-3.733,-3.7361,-3.7324,-3.7482,-3.7518,-3.7654,-3.7696,-3.7727,-3.7754,-3.7707,-3.7891,-3.7908,-3.7924,-3.7981,-3.8004,-3.7733,-3.7732,-3.7732,-3.7731,0,-3.7081,-3.7167,-3.724,-3.7321,-3.7373,-3.7469,-3.7484,-3.7537,-3.753,-3.7548,-3.7661,-3.7703,-3.7781,-3.7813,-3.7806,-3.7949,-3.7927,-3.789,-3.7823,-3.7953,-3.8007,-3.8029,-3.7741,-3.7739,-3.7737,-3.7736,0,0,-3.7277,-3.7359,-3.7385,-3.7422,-3.7488,-3.7553,-3.7646,-3.7724,-3.777,-3.7826,-3.7903,-3.8011,-3.7979,-3.8021,-3.8018,-3.8082,-3.8214,-3.8038,-3.8039,-3.8069,-3.8374,-3.8401,-3.8427,-3.8198,-3.8202,-3.8206,-3.8369,0,-3.7435,-3.7602,-3.7607,-3.7758,-3.7837,-3.7811,-3.7892,-3.794,-3.7959,-3.8027,-3.8047,-3.8124,-3.8074,-3.81,-3.8162,-3.8185,-3.8275,-3.8173,-3.8269,-3.8273,-3.8257,-3.8455,-3.8485,-3.8637,-3.839,-3.8394,-3.8396,0,-3.7643,-3.7708,-3.7868,-3.7924,-3.7957,-3.803,-3.8102,-3.8168,-3.8222,-3.8231,-3.8279,-3.8267,-3.8361,-3.8291,-3.842,-3.835,-3.8389,-3.8407,-3.8412,-3.8422,-3.8343,-3.847,-3.8685,-3.8709,-3.843,-3.8427,-3.8425,0,-3.777,-3.7897,-3.801,-3.8042,-3.8109,-3.8161,-3.8191,-3.8241,-3.8288,-3.835,-3.838,-3.8451,-3.8491,-3.8545,-3.8552,-3.8501,-3.8682,-3.8612,-3.8691,-3.8691,-3.8731,-3.8728,-3.8956,-3.8756,-3.8755,-3.8755,-3.8755,0,-3.7946,-3.8045,-3.8068,-3.8137,-3.8247,-3.8251,-3.8359,-3.8384,-3.8429,-3.8502,-3.8482,-3.855,-3.8556,-3.8625,-3.8631,-3.8737,-3.8754,-3.8763,-3.8764,-3.8766,-3.8765,-3.8791,-3.8781,-3.8761,-3.876,-3.8759,-3.8757,0,-3.8107,-3.8126,-3.8247,-3.8302,-3.8317,-3.8396,-3.8441,-3.8507,-3.8524,-3.8616,-3.8638,-3.8664,-3.8745,-3.8758,-3.8852,-3.8856,-3.8983,-3.8972,-3.8966,-3.8964,-3.9043,-3.9036,-3.9296,-3.9331,-3.9107,-3.911,-3.9111,0,-3.8219,-3.8295,-3.8358,-3.8407,-3.844,-3.8518,-3.8566,-3.8572,-3.8623,-3.869,-3.8747,-3.8827,-3.8891,-3.9021,-3.9047,-3.9119,-3.911,-3.9196,-3.912,-3.912,-3.9112,-3.9107,-3.9115,-3.9211,-3.9213,-3.9215,-3.9217,0,-3.8416,-3.8422,-3.8493,-3.8568,-3.8627,-3.8686,-3.8741,-3.8781,-3.8794,-3.8852,-3.8936,-3.8986,-3.9083,-3.9162,-3.9233,-3.9262,-3.9242,-3.9241,-3.9263,-3.9266,-3.9259,-3.9264,-3.9006,-3.9235,-3.9233,-3.9232,-3.9231,-3.923,-3.8556,-3.8622,-3.8678,-3.8758,-3.8801,-3.8853,-3.8918,-3.8944,-3.9014,-3.9096,-3.9094,-3.9186,-3.9237,-3.9332,-3.9366,-3.9436,-3.9408,-3.944,-3.9448,-3.9456,-3.9464,-3.9248,-3.9449,-3.9449,-3.9448,-3.9448,-3.9447,0,-3.8752,-3.8786,-3.886,-3.894,-3.9003,-3.898,-3.904,-3.9094,-3.9176,-3.9226,-3.929,-3.9386,-3.9463,-3.9496,-3.957,-3.9621,-3.9613,-3.964,-3.9636,-3.9643,-3.9485,-3.9459,-3.9645,-3.9645,-3.9645,-3.9645,-3.9645,-3.9645,-3.8861,-3.8973,-3.8986,-3.9118,-3.9151,-3.9243,-3.9279,-3.9327,-3.9368,-3.9477,-3.9541,-3.9563,-3.9606,-3.9684,-3.9752,-3.976,-3.9788,-3.982,-3.9823,-3.9674,-3.9654,-3.9635,-3.9611,-3.9826,-3.9826,-3.9975,-3.9977,-3.9978]}]]